[[{"header":{"parameterUnit":"m.s-1","parameterCategory":2,"la1":30.2992,"la2":30.254,"lo1":-89.0895,"lo2":-89.0443,"dy":0.0025,"dx":0.0025,"nx":19,"ny":19,"refTime":"2026-04-26T21:00:00:Z","depth":"0","parameterNumber":2,"parameterNumberName":"U-component_of_CURRENTS"},"data":[0,0,0,0.2418,0.242,0.2515,0.2515,0.2637,0.2638,0,0,0,0,0,0,0,0,0,0,0,0.2371,0.2372,0.2418,0.2421,0.2515,0.2515,0.2636,0.2638,0,0,0,0,0,0,0,0,0,0,0,0.2371,0.2372,0.2372,0.2421,0.2515,0.2515,0.2636,0.2565,0,0,0,0,0,0,0,0,0,0,0.2473,0.2417,0.2371,0.2372,0.2422,0.2515,0.2515,0.2561,0.2569,0.2594,0,0.2599,0,0.2629,0.2646,0.2646,0,0,0,0.2421,0.241,0.2451,0.2372,0.2422,0.2515,0.2472,0.2566,0.2575,0.2604,0.2601,0.2606,0.2631,0.2647,0.2647,0.2712,0.2712,0,0,0.2416,0.2378,0.2445,0.2456,0.2436,0.2469,0.2475,0.2571,0.2567,0.2602,0.261,0.2633,0.2647,0.2648,0.2712,0.2712,0,0,0,0.2401,0.2374,0.2412,0.245,0.2472,0.2472,0.2479,0.2562,0.2579,0.2611,0.2634,0.2648,0.265,0.2713,0.2712,0.2686,0,0,0,0.2397,0.2367,0.241,0.2387,0.247,0.2516,0.2467,0.2571,0.2584,0.2633,0.2648,0.2651,0.2713,0.2713,0.2687,0.2657,0,0,0,0.2369,0.2364,0.2374,0.2385,0.243,0.2515,0.2537,0.2575,0.2598,0.2646,0.2651,0.2713,0.2713,0.2688,0.2659,0.2703,0,0,0,0.233,0.2333,0.2372,0.2384,0.2429,0.2481,0.2536,0.2572,0.2606,0.2649,0.2713,0.2712,0.2688,0.2661,0.2703,0.2723,0.2722,0,0,0.2315,0.233,0.234,0.2379,0.2403,0.2468,0.25,0.2564,0.261,0.2682,0.2684,0.2686,0.2659,0.2703,0.2696,0.2696,0,0,0,0.2324,0.2319,0.2334,0.2359,0.2415,0.2456,0.2524,0.2563,0.2627,0.263,0.2684,0.2668,0.2697,0.2709,0.2709,0.2697,0.271,0.271,0.271,0.2222,0.2273,0.2276,0.2333,0.2368,0.2449,0.2495,0.2561,0.2605,0.2623,0.2645,0.2654,0.2665,0.2666,0.2652,0.2654,0.2654,0.2654,0.2654,0.2178,0.2181,0.2232,0.2256,0.2317,0.2356,0.2474,0.2521,0.2607,0.2619,0.265,0.2677,0.2664,0.265,0.2652,0.2653,0.2653,0.2653,0.2653,0.2102,0.2113,0.2137,0.2179,0.2215,0.2306,0.2374,0.2468,0.2571,0.2599,0.2659,0.266,0.2652,0.2632,0.2632,0.2632,0.2632,0.2632,0.2632,0.2021,0.2049,0.2046,0.21,0.2118,0.2181,0.2318,0.2401,0.2544,0.2621,0.2622,0.2646,0.2648,0.2654,0.2633,0.2633,0.2633,0.2633,0.2633,0.1941,0.1961,0.1957,0.1967,0.2021,0.2047,0.2192,0.2375,0.2491,0.2569,0.2657,0.2661,0.268,0.2681,0.2688,0.2677,0.2677,0.2677,0.2677,0.1878,0.1892,0.1872,0.1873,0.1902,0.1982,0.2052,0.2253,0.2517,0.2633,0.2667,0.2662,0.266,0.2678,0.2678,0.2686,0.2674,0.2674,0.2674,0.1827,0.1833,0.179,0.1809,0.184,0.19,0.1947,0.2097,0.2494,0.2672,0.2644,0.2645,0.2633,0.2632,0.2657,0.2659,0.2671,0,0]},{"header":{"parameterUnit":"m.s-1","parameterCategory":2,"la1":30.2992,"la2":30.254,"lo1":-89.0895,"lo2":-89.0443,"dy":0.0025,"dx":0.0025,"nx":19,"ny":19,"refTime":"2026-04-26T21:00:00:Z","depth":"0","parameterNumber":3,"parameterNumberName":"V-component_of_CURRENTS"},"data":[0,0,0,0.0265,0.0265,0.0276,0.0276,0.0286,0.0286,0,0,0,0,0,0,0,0,0,0,0,0.0265,0.0265,0.0265,0.0265,0.0275,0.0276,0.0286,0.0286,0,0,0,0,0,0,0,0,0,0,0,0.0265,0.0265,0.0265,0.0265,0.0275,0.0276,0.0286,0.028,0,0,0,0,0,0,0,0,0,0,0.0271,0.0274,0.0265,0.0265,0.0265,0.0275,0.0276,0.028,0.0281,0.0277,0,0.0277,0,0.0276,0.0285,0.0285,0,0,0,0.0273,0.0274,0.0269,0.0265,0.0265,0.0275,0.0273,0.0281,0.0281,0.0278,0.0277,0.0277,0.0276,0.0285,0.0285,0.0324,0.0324,0,0,0.0272,0.0275,0.0269,0.027,0.0264,0.0273,0.0273,0.0281,0.0284,0.0277,0.0277,0.0276,0.0285,0.0285,0.0323,0.0324,0,0,0,0.0265,0.0274,0.027,0.0269,0.0268,0.0273,0.0273,0.0284,0.0281,0.0277,0.0276,0.0285,0.0285,0.0323,0.0323,0.0389,0,0,0,0.0265,0.0269,0.027,0.0273,0.0268,0.0278,0.0276,0.028,0.0281,0.0276,0.0285,0.0285,0.0322,0.0323,0.0386,0.0436,0,0,0,0.0265,0.027,0.0268,0.0272,0.0272,0.0277,0.0275,0.0281,0.028,0.0285,0.0285,0.0322,0.0323,0.0384,0.0431,0.0475,0,0,0,0.0271,0.0303,0.0268,0.0308,0.0272,0.0309,0.0275,0.03,0.031,0.0285,0.0322,0.0323,0.0383,0.0428,0.0471,0.0563,0.0586,0,0,0.0323,0.0309,0.0335,0.0305,0.0348,0.0309,0.0364,0.0354,0.0323,0.0319,0.032,0.0387,0.043,0.0474,0.0623,0.0644,0,0,0,0.036,0.0376,0.0383,0.0396,0.0399,0.0418,0.0398,0.0388,0.0387,0.033,0.039,0.0415,0.044,0.0489,0.0506,0.0423,0.0328,0.0328,0.0328,0.0435,0.0435,0.0479,0.0481,0.0499,0.0495,0.0512,0.0493,0.0442,0.0449,0.047,0.0553,0.0605,0.0619,0.0532,0.046,0.046,0.046,0.046,0.0514,0.054,0.0543,0.0582,0.0585,0.0622,0.0623,0.0595,0.06,0.0538,0.0559,0.0558,0.0641,0.0542,0.0464,0.0464,0.0463,0.0463,0.0462,0.0553,0.0567,0.0584,0.0632,0.0687,0.0699,0.0767,0.073,0.0683,0.0699,0.0731,0.0731,0.0643,0.0696,0.0696,0.0696,0.0697,0.0697,0.0697,0.0579,0.0599,0.0639,0.0689,0.0731,0.0797,0.0842,0.0868,0.0872,0.0832,0.0832,0.0675,0.0625,0.0615,0.0704,0.0703,0.0702,0.0701,0.0701,0.0633,0.0626,0.0687,0.0728,0.0833,0.095,0.098,0.1073,0.1065,0.1089,0.089,0.0899,0.089,0.0877,0.0873,0.1024,0.1024,0.1024,0.1024,0.0659,0.0664,0.0742,0.0819,0.0922,0.1024,0.1213,0.1288,0.1172,0.109,0.0973,0.0919,0.091,0.0896,0.0882,0.0876,0.1024,0.1023,0.1023,0.07,0.0711,0.0781,0.0849,0.0972,0.1127,0.1354,0.1505,0.1269,0.1008,0.084,0.084,0.0739,0.0731,0.0687,0.0674,0.0654,0,0]}],[{"header":{"parameterUnit":"m.s-1","parameterCategory":2,"la1":30.2992,"la2":30.254,"lo1":-89.0895,"lo2":-89.0443,"dy":0.0025,"dx":0.0025,"nx":19,"ny":19,"refTime":"2026-04-26T21:00:00:Z","depth":"2","parameterNumber":2,"parameterNumberName":"U-component_of_CURRENTS"},"data":[0,0,0,0.1745,0.1746,0.18,0.18,0.177,0.1769,0,0,0,0,0,0,0,0,0,0,0,0.1736,0.1736,0.1745,0.1746,0.18,0.18,0.177,0.1769,0,0,0,0,0,0,0,0,0,0,0,0.1736,0.1736,0.1737,0.1746,0.18,0.18,0.177,0.1755,0,0,0,0,0,0,0,0,0,0,0.1716,0.1745,0.1736,0.1737,0.1746,0.18,0.18,0.1756,0.1756,0.1715,0,0.1731,0,0.174,0.1764,0.1764,0,0,0,0.1752,0.1745,0.1731,0.1737,0.1747,0.18,0.1777,0.1757,0.1757,0.1715,0.1731,0.173,0.1739,0.1764,0.1763,0.1793,0.1794,0,0,0.1749,0.1769,0.1731,0.1732,0.1768,0.1775,0.1779,0.1758,0.1776,0.1731,0.173,0.1739,0.1763,0.1763,0.1793,0.1794,0,0,0,0.1736,0.1767,0.1757,0.1732,0.1745,0.1777,0.1781,0.1778,0.1767,0.173,0.1738,0.1763,0.1762,0.1792,0.1793,0.1877,0,0,0,0.1735,0.1758,0.1755,0.1771,0.1746,0.1782,0.1801,0.1769,0.1767,0.1738,0.1763,0.1761,0.1791,0.1792,0.1872,0.1861,0,0,0,0.1732,0.1759,0.1761,0.1771,0.1788,0.1782,0.1773,0.1769,0.177,0.1764,0.1761,0.179,0.1792,0.1868,0.1856,0.1866,0,0,0,0.1754,0.176,0.1763,0.1774,0.1787,0.1801,0.1773,0.1812,0.1818,0.1762,0.1791,0.1793,0.1867,0.1853,0.1864,0.1801,0.1808,0,0,0.1761,0.1763,0.1763,0.1765,0.1767,0.1793,0.1827,0.1837,0.1831,0.1788,0.179,0.1874,0.1856,0.1866,0.1921,0.1924,0,0,0,0.1763,0.1767,0.1767,0.1778,0.1785,0.1818,0.1844,0.1866,0.191,0.1842,0.1893,0.1878,0.1881,0.184,0.1843,0.1803,0.1802,0.1802,0.1802,0.1799,0.1785,0.1787,0.1781,0.1805,0.1854,0.1886,0.1923,0.193,0.1993,0.1963,0.2043,0.2004,0.2005,0.2006,0.2006,0.2007,0.2007,0.2007,0.1788,0.1772,0.1796,0.1799,0.1832,0.1884,0.1936,0.1983,0.2036,0.2048,0.2049,0.195,0.2013,0.2014,0.2013,0.2012,0.2011,0.2011,0.201,0.1791,0.1773,0.18,0.1815,0.1869,0.1923,0.1958,0.203,0.2088,0.2112,0.2064,0.2061,0.2047,0.2147,0.2147,0.2147,0.2147,0.2147,0.2147,0.1765,0.1776,0.1782,0.1822,0.1849,0.191,0.1995,0.2023,0.2088,0.2114,0.2113,0.2088,0.2084,0.2054,0.2148,0.2147,0.2147,0.2147,0.2147,0.1679,0.1731,0.1713,0.1735,0.178,0.1769,0.1882,0.1948,0.2014,0.2023,0.2095,0.2096,0.2043,0.2039,0.2008,0.2084,0.2084,0.2084,0.2084,0.1623,0.1646,0.161,0.1608,0.163,0.1678,0.165,0.1647,0.1765,0.1726,0.174,0.1696,0.1708,0.1632,0.1638,0.1596,0.1564,0.1562,0.1561,0.1523,0.1536,0.1481,0.1521,0.154,0.1552,0.1472,0.1391,0.1365,0.1529,0.1531,0.2072,0.2047,0.2051,0.1965,0.1962,0.1907,0,0]},{"header":{"parameterUnit":"m.s-1","parameterCategory":2,"la1":30.2992,"la2":30.254,"lo1":-89.0895,"lo2":-89.0443,"dy":0.0025,"dx":0.0025,"nx":19,"ny":19,"refTime":"2026-04-26T21:00:00:Z","depth":"2","parameterNumber":3,"parameterNumberName":"V-component_of_CURRENTS"},"data":[0,0,0,-0.0299,-0.0299,-0.0323,-0.0324,-0.0417,-0.0418,0,0,0,0,0,0,0,0,0,0,0,-0.0294,-0.0294,-0.0299,-0.0299,-0.0323,-0.0324,-0.0416,-0.0418,0,0,0,0,0,0,0,0,0,0,0,-0.0294,-0.0294,-0.0294,-0.0299,-0.0323,-0.0324,-0.0416,-0.0384,0,0,0,0,0,0,0,0,0,0,-0.0354,-0.0327,-0.0294,-0.0294,-0.03,-0.0323,-0.0324,-0.0382,-0.0386,-0.0421,0,-0.0422,0,-0.0419,-0.0425,-0.0425,0,0,0,-0.0306,-0.0323,-0.0339,-0.0294,-0.03,-0.0323,-0.0315,-0.0384,-0.0389,-0.0427,-0.0423,-0.0426,-0.0421,-0.0425,-0.0426,-0.0466,-0.0465,0,0,-0.0305,-0.0293,-0.0335,-0.0342,-0.0303,-0.0314,-0.0315,-0.0386,-0.0386,-0.0423,-0.0428,-0.0422,-0.0426,-0.0427,-0.0466,-0.0465,0,0,0,-0.0297,-0.0291,-0.0304,-0.0339,-0.0337,-0.0314,-0.0316,-0.0383,-0.039,-0.0429,-0.0423,-0.0427,-0.0428,-0.0466,-0.0466,-0.0343,0,0,0,-0.0296,-0.0286,-0.0304,-0.0296,-0.0335,-0.0348,-0.0311,-0.0385,-0.0392,-0.0423,-0.0427,-0.0429,-0.0467,-0.0466,-0.0347,-0.0309,0,0,0,-0.0293,-0.0286,-0.0289,-0.0295,-0.0303,-0.0347,-0.0357,-0.0386,-0.039,-0.0425,-0.0429,-0.0467,-0.0466,-0.0351,-0.0316,-0.0302,0,0,0,-0.0279,-0.0264,-0.0289,-0.0267,-0.0303,-0.0296,-0.0357,-0.0357,-0.0377,-0.0427,-0.0467,-0.0466,-0.0352,-0.032,-0.0305,-0.0213,-0.0191,0,0,-0.025,-0.026,-0.0246,-0.0268,-0.0246,-0.0294,-0.027,-0.0324,-0.0381,-0.045,-0.0451,-0.0345,-0.0316,-0.0303,-0.0166,-0.0144,0,0,0,-0.0229,-0.0217,-0.0215,-0.0208,-0.0221,-0.0221,-0.0268,-0.0292,-0.0325,-0.039,-0.0363,-0.035,-0.0345,-0.0297,-0.028,-0.0462,-0.0462,-0.0462,-0.0462,-0.0147,-0.0162,-0.0135,-0.015,-0.0147,-0.0171,-0.0175,-0.0222,-0.0275,-0.0265,-0.0261,-0.0185,-0.0131,-0.0118,-0.0269,-0.0268,-0.0268,-0.0267,-0.0267,-0.0085,-0.0064,-0.0078,-0.0055,-0.0065,-0.0048,-0.0087,-0.0109,-0.013,-0.0178,-0.0178,-0.0184,-0.0091,-0.0258,-0.0259,-0.0261,-0.0262,-0.0262,-0.0263,-0.0014,-0.0013,-0.0001,0.0024,0.0056,0.0043,0.007,0.0036,-0.0028,-0.0015,-0.0007,-0.0009,-0.0125,-0.0013,-0.0013,-0.0013,-0.0013,-0.0012,-0.0012,0.0047,0.0049,0.0078,0.0106,0.014,0.0178,0.0173,0.0165,0.0153,0.0114,0.0114,-0.0102,-0.011,-0.0113,-0.0008,-0.0009,-0.0009,-0.001,-0.001,0.0085,0.0102,0.0141,0.0175,0.0238,0.0314,0.0309,0.0342,0.0308,0.031,0.0168,0.0162,0.0117,0.0103,0.0104,0.0258,0.0258,0.0258,0.0258,0.0113,0.0122,0.017,0.022,0.0297,0.036,0.0498,0.0503,0.0409,0.0308,0.0305,0.0286,0.0276,0.0234,0.0217,0.0217,0.04,0.04,0.04,0.0101,0.0126,0.016,0.0223,0.0314,0.0426,0.0617,0.0696,0.047,0.0397,0.0243,0.0284,0.0248,0.0234,0.0158,0.0136,0.013,0,0]}],[{"header":{"parameterUnit":"m.s-1","parameterCategory":2,"la1":30.2992,"la2":30.254,"lo1":-89.0895,"lo2":-89.0443,"dy":0.0025,"dx":0.0025,"nx":19,"ny":19,"refTime":"2026-04-26T21:00:00:Z","depth":"4","parameterNumber":2,"parameterNumberName":"U-component_of_CURRENTS"},"data":[0,0,0,0.0421,0.0424,0.0611,0.0612,0.0707,0.0707,0,0,0,0,0,0,0,0,0,0,0,0.0373,0.0374,0.0421,0.0424,0.0611,0.0612,0.0707,0.0707,0,0,0,0,0,0,0,0,0,0,0,0.0372,0.0374,0.0375,0.0425,0.061,0.0612,0.0707,0.061,0,0,0,0,0,0,0,0,0,0,0.0451,0.0425,0.0373,0.0375,0.0426,0.061,0.0612,0.0608,0.0616,0.057,0,0.0595,0,0.0626,0.0707,0.0707,0,0,0,0.046,0.0419,0.0447,0.0375,0.0427,0.061,0.0537,0.0614,0.0623,0.058,0.0596,0.0601,0.0627,0.0707,0.0707,0.0727,0.0727,0,0,0.045,0.0427,0.0441,0.0452,0.0465,0.053,0.0542,0.0622,0.0635,0.0597,0.0603,0.0629,0.0707,0.0707,0.0727,0.0727,0,0,0,0.0396,0.042,0.0452,0.0448,0.0478,0.0535,0.0548,0.0634,0.0638,0.0605,0.063,0.0707,0.0707,0.0727,0.0727,0.0815,0,0,0,0.0392,0.0386,0.0446,0.0438,0.0477,0.0579,0.0558,0.0634,0.0644,0.0629,0.0707,0.0707,0.0726,0.0727,0.0812,0.0828,0,0,0,0.0366,0.0384,0.0398,0.0436,0.0497,0.0579,0.0593,0.0639,0.0655,0.0707,0.0707,0.0726,0.0727,0.081,0.0824,0.0842,0,0,0,0.0347,0.0363,0.0398,0.0425,0.0495,0.059,0.0593,0.0688,0.074,0.0707,0.0726,0.0727,0.0809,0.0822,0.084,0.0658,0,0,0,0.0348,0.0363,0.0376,0.041,0.0478,0.0567,0.0664,0.0736,0.0724,0.0695,0.0698,0.0813,0.0824,0.0841,0.0694,0,0,0,0,0.0362,0.0384,0.0407,0.0461,0.0528,0.0639,0.0725,0.0752,0.0802,0.0748,0.08,0.0803,0.0812,0.0699,0.073,0.073,0.073,0.073,0.073,0.0366,0.0395,0.0433,0.0497,0.057,0.0704,0.0783,0.083,0.0825,0.086,0.0867,0.0926,0.081,0.0868,0.0868,0.0869,0.0869,0.0869,0.0869,0.036,0.0377,0.0451,0.0512,0.0622,0.0734,0.0841,0.0889,0.0944,0.0925,0.093,0.0789,0.0878,0.0876,0.0875,0.0874,0.0873,0.0873,0.0872,0.0347,0.0357,0.0413,0.0498,0.0639,0.0776,0.0842,0.0952,0.0999,0.1033,0.0894,0.0968,0.0968,0.1047,0.1047,0.1047,0.1048,0.1048,0.1048,0.03,0.0344,0.0388,0.0496,0.0577,0.07,0.0865,0.088,0.0975,0.0949,0.1058,0.0984,0.0979,0.0976,0.1051,0.105,0.105,0.1049,0.1049,0.0262,0.0289,0.0322,0.0385,0.0516,0.0578,0.0734,0.0785,0.0803,0.0791,0.0889,0.0896,0.0837,0.0834,0.0824,0.0857,0.0854,0.0852,0,0.0225,0.024,0.0273,0.032,0.0371,0.05,0.0488,0.0544,0.0667,0.0685,0.0771,0.088,0.0885,0.0813,0.0808,0.0792,0,0,0,0.0185,0.0199,0.0207,0.0261,0.0323,0.0385,0.0485,0.0497,0.0684,0.0616,0.08,0.0814,0.0816,0.1059,0.0984,0.0977,0.0969,0,0]},{"header":{"parameterUnit":"m.s-1","parameterCategory":2,"la1":30.2992,"la2":30.254,"lo1":-89.0895,"lo2":-89.0443,"dy":0.0025,"dx":0.0025,"nx":19,"ny":19,"refTime":"2026-04-26T21:00:00:Z","depth":"4","parameterNumber":3,"parameterNumberName":"V-component_of_CURRENTS"},"data":[0,0,0,0.0262,0.0261,0.0183,0.0183,-0.0022,-0.0024,0,0,0,0,0,0,0,0,0,0,0,0.0269,0.0269,0.0262,0.0261,0.0183,0.0182,-0.0022,-0.0024,0,0,0,0,0,0,0,0,0,0,0,0.0269,0.0269,0.0269,0.0261,0.0184,0.0182,-0.0021,0.0054,0,0,0,0,0,0,0,0,0,0,0.0138,0.018,0.0269,0.0269,0.0261,0.0184,0.0182,0.0058,0.0049,-0.0004,0,0.0,0,0.0008,-0.0036,-0.0037,0,0,0,0.022,0.0188,0.0173,0.0269,0.0261,0.0184,0.0207,0.0053,0.0043,-0.0016,-0.0002,-0.0008,0.0005,-0.0037,-0.0038,-0.0176,-0.0176,0,0,0.0224,0.024,0.0181,0.0168,0.0259,0.021,0.0205,0.0048,0.0039,-0.0003,-0.0013,0.0002,-0.0038,-0.004,-0.0175,-0.0176,0,0,0,0.0264,0.0243,0.0233,0.0175,0.0183,0.0208,0.0203,0.0045,0.0044,-0.0014,-0.0001,-0.0039,-0.0042,-0.0175,-0.0175,-0.0147,0,0,0,0.0265,0.027,0.0235,0.0242,0.0187,0.0131,0.0204,0.0054,0.0038,0.0,-0.0039,-0.0043,-0.0175,-0.0175,-0.0148,-0.0108,0,0,0,0.0269,0.0271,0.0269,0.0243,0.0232,0.0134,0.0122,0.0051,0.0048,-0.0037,-0.0044,-0.0175,-0.0175,-0.0148,-0.011,-0.0092,0,0,0,0.0276,0.0266,0.0269,0.026,0.0233,0.0181,0.0123,0.005,-0.0021,-0.004,-0.0175,-0.0175,-0.0148,-0.0111,-0.0093,-0.0066,0,0,0,0.0264,0.0265,0.0259,0.0262,0.0243,0.0187,0.0127,0.0007,-0.0043,-0.0138,-0.0141,-0.0147,-0.011,-0.0092,-0.0086,0,0,0,0,0.0256,0.0256,0.025,0.0244,0.021,0.0163,0.0061,0.0008,-0.0091,-0.0075,-0.0162,-0.0139,-0.0129,-0.0118,-0.0177,-0.0177,-0.0177,-0.0177,-0.0177,0.0248,0.0245,0.0241,0.0228,0.0196,0.0118,0.0062,-0.0029,-0.0092,-0.0128,-0.0128,-0.0108,-0.0098,-0.0157,-0.0157,-0.0157,-0.0157,-0.0157,-0.0157,0.0245,0.0246,0.0244,0.0237,0.0201,0.014,0.0042,-0.0013,-0.008,-0.0124,-0.0116,-0.0104,-0.0154,-0.0155,-0.0155,-0.0155,-0.0156,-0.0156,-0.0156,0.0247,0.0248,0.0253,0.0255,0.0224,0.016,0.0134,0.0054,-0.0034,-0.0037,-0.0032,-0.0081,-0.0069,-0.004,-0.004,-0.004,-0.004,-0.0039,-0.0039,0.0246,0.0254,0.027,0.0272,0.0279,0.0258,0.019,0.0152,0.0069,0.0023,-0.0021,-0.0068,-0.0072,-0.0062,-0.0035,-0.0036,-0.0037,-0.0037,-0.0037,0.024,0.0256,0.0286,0.0309,0.0337,0.0326,0.0295,0.0213,0.0183,0.013,0.0045,0.004,0.0039,0.0033,0.0046,0.0107,0.0107,0.0108,0,0.0239,0.0247,0.0299,0.0349,0.0378,0.0366,0.0338,0.0283,0.0176,0.017,0.0157,0.0064,0.0058,0.0059,0.0054,0.0071,0,0,0,0.0238,0.0257,0.0291,0.0348,0.0389,0.0349,0.0319,0.0283,0.0212,0.0174,0.012,0.0117,0.0049,-0.0024,-0.0037,-0.0042,-0.0027,0,0]}]]